SUPERBIRD-B3 (43271 NORAD) Tracking and Keplerian Element Data

This shows tracking and keplerian element data for the satellite.

Feedback or suggestion? Click here.




ElementValue
Catalog43271
NameSUPERBIRD-B3
Epoch Orbit1697
Epoch Day324.86963493
Epoch Year2022
RAAN117.8575
Inclination0.0158
Eccentricity9.76E-05
Argument of Perigee155.4292
Mean Anonmoly261.6732
Mean Motion1.00270712
Decay Rate-7E-07
L11 43271U 18033A 22324.86963493 -.00000070 00000+0 00000+0 0 9999
L22 43271 0.0158 117.8575 0000976 155.4292 261.6732 1.00270712 16977



Live tracking and technical data element details for SUPERBIRD-B3 (NORAD 43271). SUPERBIRD-B3 can be tracked NOW for your location showing map with azimuth and elevation plus other details from your city location.







IsCatalogInMostPopularTable: catalog: 43271, numindb: 2176
Update: records affected: 1



GetName: 43271 SUPERBIRD-B3

Hit Count: updated at: Sun, 04 Dec 2022 21:28:18 GMT